Location: Cluj-Napoca
(46.7712°N, 23.6236°E)
Time: 00:39:45
(UTC+03:00)

N. Korean satellite - Pass Details

Date: 30 September 2021
Orbit: 450 x 495 km, 97.3° (Epoch: 23 October)

Event Time Altitude Azimuth Distance (km) Brightness Sun altitude
Rises 05:44:55 0° 30° (NNE) 2,546 10.9 -17.4°
Reaches altitude 10° 05:47:39 10° 53° (NE) 1,670 10.3 -17.0°
Maximum altitude 05:49:53 16° 92° (E) 1,359 9.9 -16.6°
Drops below altitude 10° 05:52:07 10° 130° (SE) 1,675 9.8 -16.2°
Sets 05:54:51 0° 153° (SSE) 2,557 10.4 -15.8°
